Stündliche Wetter Aars

Heute, 4 März, Donnerstag

Zeit Temperatur Niederschläge Wind Luftdruck Luftfeuchtigkeit
00:00 +1°C° 0 mm 3 m/S 760 mmHg 88%
01:00 +2°C° 0 mm 2 m/S 761 mmHg 87%
02:00 +1°C° 0 mm 3 m/S 761 mmHg 87%
03:00 0°C° 0 mm 4 m/S 760 mmHg 87%
04:00 -1°C° 0 mm 4 m/S 760 mmHg 87%
05:00 -1°C° 0 mm 5 m/S 761 mmHg 81%
06:00 -2°C° 0 mm 6 m/S 761 mmHg 74%
07:00 -3°C° 0 mm 6 m/S 761 mmHg 67%
08:00 -2°C° 0 mm 6 m/S 762 mmHg 61%
09:00 -1°C° 0 mm 7 m/S 762 mmHg 54%
10:00 0°C° 0 mm 7 m/S 763 mmHg 47%
11:00 0°C° 0 mm 7 m/S 763 mmHg 46%
12:00 +2°C° 0 mm 6 m/S 763 mmHg 46%
13:00 +2°C° 0 mm 6 m/S 764 mmHg 45%
14:00 +2°C° 0 mm 6 m/S 764 mmHg 45%
15:00 +2°C° 0 mm 6 m/S 764 mmHg 45%
16:00 +1°C° 0 mm 6 m/S 764 mmHg 45%
17:00 0°C° 0 mm 5 m/S 764 mmHg 48%
18:00 -1°C° 0 mm 4 m/S 764 mmHg 52%
19:00 -1°C° 0 mm 3 m/S 764 mmHg 56%
20:00 -1°C° 0 mm 3 m/S 764 mmHg 59%
21:00 -1°C° 0 mm 3 m/S 765 mmHg 62%
22:00 0°C° 0 mm 3 m/S 765 mmHg 65%
23:00 -1°C° 0 mm 3 m/S 765 mmHg 67%

Morgen, 5 März, Freitag

Zeit Temperatur Niederschläge Wind Luftdruck Luftfeuchtigkeit
00:00 -1°C° 0 mm 3 m/S 765 mmHg 69%
01:00 -1°C° 0 mm 2 m/S 765 mmHg 71%
02:00 -1°C° 0 mm 2 m/S 765 mmHg 70%
03:00 -1°C° 0 mm 2 m/S 765 mmHg 69%
04:00 +1°C° 0 mm 1 m/S 765 mmHg 68%
05:00 +1°C° 0 mm 1 m/S 766 mmHg 67%
06:00 0°C° 0 mm 1 m/S 766 mmHg 66%
07:00 0°C° 0 mm 1 m/S 766 mmHg 65%
08:00 +1°C° 0 mm 1 m/S 766 mmHg 58%
09:00 +3°C° 0 mm 1 m/S 767 mmHg 51%
10:00 +4°C° 0 mm 1 m/S 767 mmHg 44%
11:00 +4°C° 0 mm 1 m/S 768 mmHg 41%
12:00 +5°C° 0 mm 1 m/S 768 mmHg 37%
13:00 +5°C° 0 mm 1 m/S 768 mmHg 34%
14:00 +5°C° 0 mm 1 m/S 768 mmHg 34%
15:00 +5°C° 0 mm 1 m/S 768 mmHg 35%
16:00 +5°C° 0 mm 1 m/S 768 mmHg 35%
17:00 +4°C° 0 mm 1 m/S 768 mmHg 41%
18:00 +2°C° 0 mm 2 m/S 768 mmHg 46%
19:00 -1°C° 0 mm 2 m/S 769 mmHg 52%
20:00 -1°C° 0 mm 2 m/S 769 mmHg 58%
21:00 -1°C° 0 mm 3 m/S 769 mmHg 64%
22:00 -2°C° 0 mm 3 m/S 769 mmHg 71%
23:00 -2°C° 0 mm 4 m/S 769 mmHg 72%

übermorgen, 6 März, Samstag

Zeit Temperatur Niederschläge Wind Luftdruck Luftfeuchtigkeit
00:00 -2°C° 0 mm 5 m/S 769 mmHg 73%
01:00 -1°C° 0 mm 5 m/S 768 mmHg 74%
02:00 -1°C° 0 mm 6 m/S 768 mmHg 78%
03:00 -1°C° 0 mm 6 m/S 767 mmHg 81%
04:00 0°C° 0 mm 7 m/S 767 mmHg 84%
05:00 0°C° 0 mm 7 m/S 767 mmHg 84%
06:00 0°C° 0 mm 7 m/S 767 mmHg 83%
07:00 0°C° 0 mm 7 m/S 766 mmHg 83%
08:00 +1°C° 0 mm 8 m/S 766 mmHg 78%
09:00 +1°C° 0 mm 8 m/S 766 mmHg 73%
10:00 +2°C° 0 mm 9 m/S 766 mmHg 69%
11:00 +2°C° 0 mm 10 m/S 766 mmHg 67%
12:00 +2°C° 0 mm 10 m/S 766 mmHg 65%
13:00 +2°C° 0 mm 10 m/S 766 mmHg 63%
14:00 +2°C° 0 mm 10 m/S 765 mmHg 65%
15:00 +2°C° 0 mm 10 m/S 765 mmHg 67%
16:00 +1°C° 0 mm 10 m/S 765 mmHg 69%
17:00 +1°C° 0 mm 10 m/S 764 mmHg 72%
18:00 +1°C° 0 mm 9 m/S 764 mmHg 74%
19:00 +1°C° 0 mm 9 m/S 764 mmHg 77%
20:00 +1°C° 0 mm 9 m/S 764 mmHg 77%
21:00 +1°C° 0 mm 8 m/S 763 mmHg 77%
22:00 +1°C° 0 mm 8 m/S 763 mmHg 77%
23:00 +1°C° 0 mm 8 m/S 763 mmHg 77%

7 März, Sonntag

Zeit Temperatur Niederschläge Wind Luftdruck Luftfeuchtigkeit
00:00 +1°C° 0 mm 8 m/S 762 mmHg 77%
01:00 0°C° 0 mm 8 m/S 762 mmHg 77%
02:00 0°C° 0 mm 8 m/S 761 mmHg 79%
03:00 0°C° 0 mm 8 m/S 761 mmHg 81%
04:00 0°C° 0 mm 8 m/S 760 mmHg 83%
05:00 +1°C° 0 mm 8 m/S 760 mmHg 83%
06:00 +1°C° 0 mm 8 m/S 760 mmHg 83%
07:00 +1°C° 0 mm 8 m/S 760 mmHg 83%
08:00 +2°C° 0 mm 8 m/S 760 mmHg 81%
09:00 +2°C° 0 mm 9 m/S 760 mmHg 78%
10:00 +3°C° 0 mm 9 m/S 760 mmHg 76%
11:00 +4°C° 0 mm 8 m/S 760 mmHg 70%
12:00 +4°C° 0 mm 7 m/S 761 mmHg 65%
13:00 +4°C° 0 mm 6 m/S 761 mmHg 60%
14:00 +5°C° 0 mm 5 m/S 761 mmHg 58%
15:00 +4°C° 0 mm 4 m/S 761 mmHg 57%
16:00 +4°C° 0 mm 4 m/S 761 mmHg 55%
17:00 +2°C° 0 mm 3 m/S 761 mmHg 57%
18:00 +1°C° 0 mm 3 m/S 762 mmHg 58%
19:00 +1°C° 0 mm 2 m/S 762 mmHg 60%
20:00 -1°C° 0 mm 2 m/S 763 mmHg 60%
21:00 -1°C° 0 mm 2 m/S 763 mmHg 61%
22:00 -1°C° 0 mm 2 m/S 763 mmHg 61%
23:00 +1°C° 0 mm 1 m/S 763 mmHg 61%

8 März, Montag

Zeit Temperatur Niederschläge Wind Luftdruck Luftfeuchtigkeit
00:00 +1°C° 0 mm 1 m/S 764 mmHg 62%
01:00 +1°C° 0 mm 1 m/S 764 mmHg 63%
02:00 -2°C° 0 mm 2 m/S 764 mmHg 64%
03:00 -2°C° 0 mm 2 m/S 763 mmHg 66%
04:00 -2°C° 0 mm 2 m/S 763 mmHg 67%
05:00 -2°C° 0 mm 2 m/S 763 mmHg 67%
06:00 -2°C° 0 mm 3 m/S 764 mmHg 67%
07:00 -2°C° 0 mm 3 m/S 764 mmHg 66%
08:00 -2°C° 0 mm 4 m/S 764 mmHg 67%
09:00 -1°C° 0 mm 4 m/S 764 mmHg 67%
10:00 0°C° 0 mm 5 m/S 764 mmHg 67%
11:00 0°C° 0.1 mm 5 m/S 764 mmHg 74%
12:00 0°C° 0.1 mm 5 m/S 764 mmHg 80%
13:00 +1°C° 0.1 mm 5 m/S 764 mmHg 87%
14:00 +1°C° 0.3 mm 5 m/S 763 mmHg 89%
15:00 +1°C° 0.3 mm 5 m/S 763 mmHg 91%
16:00 +1°C° 0.3 mm 5 m/S 762 mmHg 94%
17:00 +1°C° 0.4 mm 5 m/S 762 mmHg 94%
18:00 +1°C° 0.4 mm 5 m/S 762 mmHg 95%
19:00 +1°C° 0.4 mm 5 m/S 761 mmHg 95%
20:00 +1°C° 0.4 mm 5 m/S 761 mmHg 96%
21:00 +2°C° 0.4 mm 5 m/S 761 mmHg 96%
22:00 +2°C° 0.4 mm 5 m/S 761 mmHg 96%
23:00 +2°C° 0.2 mm 5 m/S 761 mmHg 95%

9 März, Dienstag

Zeit Temperatur Niederschläge Wind Luftdruck Luftfeuchtigkeit
00:00 +2°C° 0.2 mm 5 m/S 760 mmHg 94%
01:00 +2°C° 0.2 mm 5 m/S 760 mmHg 93%
02:00 +2°C° 0 mm 5 m/S 760 mmHg 93%
03:00 +1°C° 0 mm 6 m/S 759 mmHg 93%
04:00 +1°C° 0 mm 6 m/S 759 mmHg 93%
05:00 +1°C° 0 mm 6 m/S 759 mmHg 93%
06:00 +1°C° 0 mm 6 m/S 758 mmHg 92%
07:00 +1°C° 0 mm 6 m/S 758 mmHg 91%
08:00 +2°C° 0 mm 7 m/S 758 mmHg 89%
09:00 +2°C° 0 mm 7 m/S 757 mmHg 87%
10:00 +3°C° 0 mm 7 m/S 757 mmHg 85%
11:00 +3°C° 0 mm 7 m/S 757 mmHg 85%
12:00 +2°C° 0 mm 8 m/S 756 mmHg 85%
13:00 +2°C° 0 mm 8 m/S 756 mmHg 86%
14:00 +2°C° 0.3 mm 8 m/S 755 mmHg 87%
15:00 +2°C° 0.3 mm 8 m/S 754 mmHg 89%
16:00 +2°C° 0.3 mm 8 m/S 753 mmHg 91%
17:00 +3°C° 0.2 mm 7 m/S 753 mmHg 91%
18:00 +3°C° 0.2 mm 7 m/S 752 mmHg 91%
19:00 +3°C° 0.2 mm 6 m/S 752 mmHg 91%
20:00 +3°C° 0 mm 7 m/S 751 mmHg 91%
21:00 +3°C° 0 mm 7 m/S 750 mmHg 90%
22:00 +4°C° 0 mm 7 m/S 750 mmHg 89%
23:00 +4°C° 0 mm 8 m/S 748 mmHg 88%
Mehr zeigen

Wir brauchen deine Erlaubnis

Meteoprog und unser Service Anbieter werden persönliche Daten aufbewahren, so wie Cookies, Geräte Bezeichnung oder ähnliche Technologien von deinem Gerät und Prozess, so wie Persönliche Daten Inhalte und Werbungen, genauso wie social Media und den Verkehr zu analysieren.

  • Aufbewahrung und/oder Zugang zu deiner Geräte Informationen.

    Cookies, Geräte Bezeichnung oder andere Informationen, können aufbewahrt oder Zugang zu deinem Gerät erhalten, für den Grund, der oben angegeben wird.

  • Personalisierte Werbung und Inhalte, Messungen, Einblick in das Publikum und Produkt Entwicklung.

    Werbungen und Inhalte können personalisiert werden, basierend auf ein Profil. Mehr Daten können besser personalisierte Werbungen und Inhalte hinzufügen. Werbung und Inhalte können gezeigt und gemessen werden. Einblicke über das Publikum, welche die Werbung gesehen haben und den Inhalt, können abgeleitet werden. So wie Daten können genutzt werden, um es zu verbessern oder die Benutzer Erfahrung zu verbessern das System und die Software.

Wenn du “Ich stimme zu” klickst, erlaubst du uns, die Cookies zu benutzen die Geräte Bezeichnung, den Web oder ähnliche Technologien zu benutzen. Deine Settings, können in deinem Gerät bei deinem Browser geändert werden.

Für den bestimmten Zweck, berechtigten Interessen beruhen darauf, mehr als auf den Inhalt. Du kannst mehr darüber in unseren Privaten und Cookie Politik lesen.